Location: George Washington National Forest Helicopter Landing Site
(38.6463°N, 79.0851°W)
Time: 03:40:41
(UTC-04:00)

Tiros 1 - Pass Details

Date: 25 August 2019
Orbit: 630 x 664 km, 48.4° (Epoch: 21 September)

Event Time Altitude Azimuth Distance (km) Brightness Sun altitude
Exits shadow 04:51:56 - 309° (NW) 2,204 9.7 -19.9°
Reaches altitude 10° 04:52:27 10° 312° (NW) 2,022 9.5 -19.9°
Maximum altitude 04:56:50 40° 22° (NNE) 949 8.4 -19.1°
Drops below altitude 10° 05:01:15 10° 92° (E) 2,036 10.5 -18.4°
Sets 05:03:43 0° 100° (E) 2,951 11.3 -18.0°
